,,,PA_Meas_PMT16A,,PR_Meas_QMR101_102,,RH_Meas_QMH101,,SR_Meas_QMS101,,TA_Meas_QMH101,,GenWind,,GenWind,
date,time,status,PA,status,PR,status,RH,status,SR,status,TA,status,DirAvg,status,SpdAvg,
2008-05-01, 00:00:04,VALID,1009.62,VALID,0,VALID,94.4068,VALID,0,VALID,23.4992,VALID,92,VALID,0.91875,
2008-05-01, 00:01:04,VALID,1009.58,VALID,0,VALID,94.3687,VALID,0,VALID,23.4797,VALID,84,VALID,1.31367,
2008-05-01, 00:02:04,VALID,1009.58,VALID,0,VALID,94.3839,VALID,0,VALID,23.4992,VALID,91,VALID,0.95625,
2008-05-01, 00:03:04,VALID,1009.6,VALID,0,VALID,94.4145,VALID,0,VALID,23.4992,VALID,107,VALID,1.00352,
2008-05-01, 00:04:04,VALID,1009.54,VALID,0,VALID,94.3077,VALID,0.105969,VALID,23.4797,VALID,83,VALID,1.36992,
2008-05-01, 00:05:04,VALID,1009.53,VALID,0,VALID,94.3001,VALID,0,VALID,23.4602,VALID,76,VALID,1.11172,
2008-05-01, 00:06:04,VALID,1009.51,VALID,0,VALID,94.3458,VALID,0,VALID,23.5204,VALID,90,VALID,1.21133,
2008-05-01, 00:07:04,VALID,1009.48,VALID,0,VALID,94.3229,VALID,0,VALID,23.4602,VALID,93,VALID,1.14609,
2008-05-01, 00:08:04,VALID,1009.46,VALID,0,VALID,94.4373,VALID,0,VALID,23.4407,VALID,87,VALID,1.31484,
2008-05-01, 00:09:04,VALID,1009.43,VALID,0,VALID,94.3916,VALID,0,VALID,23.4407,VALID,86,VALID,1.70313,
2008-05-01, 00:10:04,VALID,1009.41,VALID,0,VALID,94.4831,VALID,0,VALID,23.4407,VALID,79,VALID,0.932813,
2008-05-01, 00:11:04,VALID,1009.4,VALID,0,VALID,94.3992,VALID,0,VALID,23.4212,VALID,86,VALID,1.15313,
2008-05-01, 00:12:04,VALID,1009.36,VALID,0,VALID,94.4755,VALID,0,VALID,23.4194,VALID,97,VALID,1.0793,
2008-05-01, 00:13:04,VALID,1009.34,VALID,0,VALID,94.4678,VALID,0.105969,VALID,23.4,VALID,92,VALID,1.53555,
2008-05-01, 00:14:04,VALID,1009.33,VALID,0,VALID,94.5593,VALID,0.105969,VALID,23.4212,VALID,67,VALID,0.850391,
2008-05-01, 00:15:04,VALID,1009.29,VALID,0,VALID,94.4907,VALID,0,VALID,23.3805,VALID,96,VALID,1.25664,
2008-05-01, 00:16:04,VALID,1009.26,VALID,0,VALID,94.5212,VALID,0,VALID,23.4017,VALID,99,VALID,1.47773,
2008-05-01, 00:17:04,VALID,1009.25,VALID,0,VALID,94.5365,VALID,0.105969,VALID,23.4194,VALID,89,VALID,1.31758,
2008-05-01, 00:18:04,VALID,1009.26,VALID,0,VALID,94.5898,VALID,0,VALID,23.4407,VALID,87,VALID,0.872656,
2008-05-01, 00:19:04,VALID,1009.26,VALID,0,VALID,94.4831,VALID,0,VALID,23.4212,VALID,71,VALID,1.31094,
2008-05-01, 00:20:04,VALID,1009.26,VALID,0,VALID,94.4983,VALID,0,VALID,23.3805,VALID,79,VALID,1.21406,
2008-05-01, 00:21:04,VALID,1009.25,VALID,0,VALID,94.4907,VALID,0.105969,VALID,23.361,VALID,84,VALID,0.755078,
2008-05-01, 00:22:04,VALID,1009.23,VALID,0,VALID,94.506,VALID,0,VALID,23.4,VALID,78,VALID,0.725391,
2008-05-01, 00:23:04,VALID,1009.21,VALID,0,VALID,94.4831,VALID,0,VALID,23.4017,VALID,65,VALID,0.61875,
2008-05-01, 00:24:04,VALID,1009.21,VALID,0,VALID,94.5441,VALID,0,VALID,23.4017,VALID,78,VALID,0.448438,
2008-05-01, 00:25:04,VALID,1009.2,VALID,0,VALID,94.5288,VALID,0,VALID,23.4017,VALID,84,VALID,0.690234,
2008-05-01, 00:26:04,VALID,1009.15,VALID,0,VALID,94.5136,VALID,0,VALID,23.3823,VALID,89,VALID,1.05508,
2008-05-01, 00:27:04,VALID,1009.13,VALID,0,VALID,94.5441,VALID,0,VALID,23.361,VALID,88,VALID,1.17539,
2008-05-01, 00:28:04,VALID,1009.13,VALID,0,VALID,94.4983,VALID,0,VALID,23.3823,VALID,89,VALID,0.941016,
2008-05-01, 00:29:04,VALID,1009.12,VALID,0,VALID,94.5365,VALID,0.105969,VALID,23.3823,VALID,83,VALID,0.447266,
2008-05-01, 00:30:04,VALID,1009.13,VALID,0,VALID,94.5441,VALID,0.105969,VALID,23.3415,VALID,75,VALID,0.901953,
2008-05-01, 00:31:04,VALID,1009.14,VALID,0,VALID,94.6051,VALID,0.105969,VALID,23.3823,VALID,90,VALID,0.608984,
2008-05-01, 00:32:04,VALID,1009.15,VALID,0,VALID,94.5898,VALID,0,VALID,23.322,VALID,96,VALID,0.710547,
2008-05-01, 00:33:04,VALID,1009.13,VALID,0,VALID,94.6127,VALID,0.105969,VALID,23.322,VALID,65,VALID,1.12695,
2008-05-01, 00:34:04,VALID,1009.08,VALID,0,VALID,94.6127,VALID,0.105969,VALID,23.3823,VALID,84,VALID,1.00742,
2008-05-01, 00:35:04,VALID,1009.08,VALID,0,VALID,94.628,VALID,0.105969,VALID,23.3415,VALID,69,VALID,0.889063,
2008-05-01, 00:36:04,VALID,1009.06,VALID,0,VALID,94.6508,VALID,0.105969,VALID,23.322,VALID,67,VALID,0.753906,
2008-05-01, 00:37:04,VALID,1009.07,VALID,0,VALID,94.6737,VALID,0.105969,VALID,23.322,VALID,108,VALID,0.680859,
2008-05-01, 00:38:04,VALID,1009.06,VALID,0,VALID,94.6661,VALID,0.105969,VALID,23.322,VALID,87,VALID,1.03242,
2008-05-01, 00:39:04,VALID,1009.03,VALID,0,VALID,94.6585,VALID,0.105969,VALID,23.3238,VALID,92,VALID,0.657422,
2008-05-01, 00:40:04,VALID,1009,VALID,0,VALID,94.7347,VALID,0.105969,VALID,23.3238,VALID,71,VALID,0.619922,
2008-05-01, 00:41:04,VALID,1008.98,VALID,0,VALID,94.7347,VALID,0.105969,VALID,23.322,VALID,79,VALID,0.69375,
2008-05-01, 00:42:04,VALID,1008.97,VALID,0,VALID,94.8034,VALID,0,VALID,23.3256,VALID,70,VALID,0.454297,
2008-05-01, 00:43:04,VALID,1008.93,VALID,0,VALID,94.7957,VALID,0,VALID,23.3061,VALID,78,VALID,0.795703,
2008-05-01, 00:44:04,VALID,1008.91,VALID,0,VALID,94.8186,VALID,0,VALID,23.3061,VALID,100,VALID,0.452344,
2008-05-01, 00:45:04,VALID,1008.9,VALID,0,VALID,94.7957,VALID,0,VALID,23.3451,VALID,99,VALID,0.550391,
2008-05-01, 00:46:04,VALID,1008.9,VALID,0,VALID,94.8568,VALID,0,VALID,23.3043,VALID,69,VALID,0.798047,
2008-05-01, 00:47:04,VALID,1008.89,VALID,0,VALID,94.8186,VALID,0,VALID,23.2848,VALID,60,VALID,0.926172,
2008-05-01, 00:48:04,VALID,1008.91,VALID,0,VALID,94.8186,VALID,0,VALID,23.3061,VALID,93,VALID,0.741406,
2008-05-01, 00:49:04,VALID,1008.89,VALID,0,VALID,94.8415,VALID,0,VALID,23.2866,VALID,87,VALID,1.15117,
2008-05-01, 00:50:04,VALID,1008.91,VALID,0,VALID,94.8262,VALID,0,VALID,23.3061,VALID,84,VALID,0.746484,
2008-05-01, 00:51:04,VALID,1008.93,VALID,0,VALID,94.8491,VALID,0,VALID,23.2848,VALID,89,VALID,0.765625,
2008-05-01, 00:52:04,VALID,1008.86,VALID,0,VALID,94.8644,VALID,0,VALID,23.3061,VALID,93,VALID,0.589453,
2008-05-01, 00:53:04,VALID,1008.87,VALID,0,VALID,94.8873,VALID,0,VALID,23.2848,VALID,92,VALID,0.532812,
2008-05-01, 00:54:04,VALID,1008.87,VALID,0,VALID,94.8796,VALID,0,VALID,23.2654,VALID,100,VALID,0.906641,
2008-05-01, 00:55:04,VALID,1008.87,VALID,0,VALID,94.9101,VALID,0,VALID,23.2866,VALID,88,VALID,0.548828,
2008-05-01, 00:56:04,VALID,1008.84,VALID,0,VALID,94.9101,VALID,0,VALID,23.2654,VALID,89,VALID,0.472656,
2008-05-01, 00:57:04,VALID,1008.84,VALID,0,VALID,94.9254,VALID,0,VALID,23.2848,VALID,89,VALID,0.333203,
2008-05-01, 00:58:04,VALID,1008.8,VALID,0,VALID,94.9178,VALID,0,VALID,23.2866,VALID,81,VALID,0.353516,
2008-05-01, 00:59:04,VALID,1008.77,VALID,0,VALID,94.9406,VALID,0,VALID,23.2866,VALID,80,VALID,0.227344,
2008-05-01, 01:00:04,VALID,1008.77,VALID,0,VALID,94.9254,VALID,0,VALID,23.2848,VALID,80,VALID,0.348437,
2008-05-01, 01:01:04,VALID,1008.75,VALID,0,VALID,94.9025,VALID,0,VALID,23.2671,VALID,61,VALID,0.698438,
2008-05-01, 01:02:04,VALID,1008.75,VALID,0,VALID,94.9025,VALID,0,VALID,23.2459,VALID,72,VALID,0.594922,
2008-05-01, 01:03:04,VALID,1008.78,VALID,0,VALID,94.9406,VALID,0,VALID,23.2671,VALID,119,VALID,0.560547,
2008-05-01, 01:04:04,VALID,1008.73,VALID,0,VALID,95.0398,VALID,0,VALID,23.2866,VALID,124,VALID,0.639844,
2008-05-01, 01:05:04,VALID,1008.75,VALID,0,VALID,94.9406,VALID,0,VALID,23.2671,VALID,122,VALID,0.571094,
2008-05-01, 01:06:04,VALID,1008.73,VALID,0,VALID,95.0245,VALID,0,VALID,23.2866,VALID,118,VALID,0.500781,
2008-05-01, 01:07:04,VALID,1008.75,VALID,0,VALID,95.0703,VALID,0,VALID,23.3061,VALID,118,VALID,0.483594,
2008-05-01, 01:08:04,VALID,1008.74,VALID,0,VALID,95.0398,VALID,0,VALID,23.2866,VALID,120,VALID,0.721484,
2008-05-01, 01:09:04,VALID,1008.74,VALID,0,VALID,94.9254,VALID,0,VALID,23.2671,VALID,106,VALID,0.85,
2008-05-01, 01:10:04,VALID,1008.7,VALID,0,VALID,94.933,VALID,0,VALID,23.2654,VALID,106,VALID,0.914844,
2008-05-01, 01:11:04,VALID,1008.65,VALID,0,VALID,94.9101,VALID,0,VALID,23.2459,VALID,105,VALID,0.779688,
2008-05-01, 01:12:04,VALID,1008.67,VALID,0,VALID,95.0245,VALID,0,VALID,23.2866,VALID,101,VALID,0.371875,
2008-05-01, 01:13:04,VALID,1008.65,VALID,0,VALID,95.0169,VALID,0,VALID,23.2476,VALID,104,VALID,0.443359,
2008-05-01, 01:14:04,VALID,1008.61,VALID,0,VALID,95.0016,VALID,0,VALID,23.2459,VALID,103,VALID,0.169141,
2008-05-01, 01:15:04,VALID,1008.59,VALID,0,VALID,95.0093,VALID,0,VALID,23.2671,VALID,103,VALID,0.363281,
2008-05-01, 01:16:04,VALID,1008.53,VALID,0,VALID,95.0703,VALID,0,VALID,23.2866,VALID,103,VALID,0.374609,
2008-05-01, 01:17:04,VALID,1008.53,VALID,0,VALID,95.0931,VALID,0,VALID,23.2866,VALID,103,VALID,0.492969,
2008-05-01, 01:18:04,VALID,1008.52,VALID,0,VALID,95.1389,VALID,0,VALID,23.2671,VALID,132,VALID,0.709766,
2008-05-01, 01:19:04,VALID,1008.49,VALID,0,VALID,95.0855,VALID,0,VALID,23.2671,VALID,119,VALID,0.882031,
2008-05-01, 01:20:04,VALID,1008.51,VALID,0,VALID,95.1236,VALID,0,VALID,23.2866,VALID,140,VALID,0.762891,
2008-05-01, 01:21:04,VALID,1008.51,VALID,0,VALID,95.116,VALID,0,VALID,23.2671,VALID,127,VALID,1.0168,
2008-05-01, 01:22:04,VALID,1008.53,VALID,0,VALID,95.1313,VALID,0,VALID,23.2459,VALID,124,VALID,1.05781,
2008-05-01, 01:23:04,VALID,1008.53,VALID,0,VALID,95.116,VALID,0,VALID,23.2476,VALID,128,VALID,1.00547,
2008-05-01, 01:24:04,VALID,1008.53,VALID,0,VALID,95.1923,VALID,0,VALID,23.2476,VALID,105,VALID,0.744141,
2008-05-01, 01:25:04,VALID,1008.52,VALID,0,VALID,95.1923,VALID,0,VALID,23.2476,VALID,114,VALID,0.540625,
2008-05-01, 01:26:04,VALID,1008.54,VALID,0,VALID,95.1542,VALID,0,VALID,23.2069,VALID,84,VALID,0.477734,
2008-05-01, 01:27:04,VALID,1008.54,VALID,0,VALID,95.1389,VALID,0,VALID,23.2282,VALID,92,VALID,1.01406,
2008-05-01, 01:28:04,VALID,1008.56,VALID,0,VALID,95.1999,VALID,0,VALID,23.2459,VALID,144,VALID,0.673437,
2008-05-01, 01:29:04,VALID,1008.53,VALID,0,VALID,95.1389,VALID,0,VALID,23.2476,VALID,147,VALID,1.01953,
2008-05-01, 01:30:04,VALID,1008.55,VALID,0,VALID,95.1313,VALID,0,VALID,23.2282,VALID,125,VALID,0.830469,
2008-05-01, 01:31:04,VALID,1008.5,VALID,0,VALID,95.1465,VALID,0,VALID,23.2476,VALID,117,VALID,1.02852,
2008-05-01, 01:32:04,VALID,1008.54,VALID,0,VALID,95.1542,VALID,0,VALID,23.2476,VALID,119,VALID,0.922656,
2008-05-01, 01:33:04,VALID,1008.51,VALID,0,VALID,95.1923,VALID,0,VALID,23.2671,VALID,114,VALID,0.808203,
2008-05-01, 01:34:04,VALID,1008.51,VALID,0,VALID,95.1847,VALID,0,VALID,23.2476,VALID,115,VALID,0.765234,
2008-05-01, 01:35:04,VALID,1008.49,VALID,0,VALID,95.116,VALID,0,VALID,23.2069,VALID,84,VALID,1.41211,
2008-05-01, 01:36:04,VALID,1008.52,VALID,0,VALID,95.1008,VALID,0,VALID,23.2069,VALID,91,VALID,1.19023,
2008-05-01, 01:37:04,VALID,1008.49,VALID,0,VALID,95.1008,VALID,0,VALID,23.2282,VALID,98,VALID,1.11406,
2008-05-01, 01:38:04,VALID,1008.47,VALID,0,VALID,95.0855,VALID,0,VALID,23.2476,VALID,81,VALID,0.746094,
2008-05-01, 01:39:04,VALID,1008.48,VALID,0,VALID,95.1008,VALID,0,VALID,23.2282,VALID,60,VALID,0.795313,
2008-05-01, 01:40:04,VALID,1008.44,VALID,0,VALID,95.0931,VALID,0,VALID,23.2282,VALID,85,VALID,1.07969,
2008-05-01, 01:41:04,VALID,1008.42,VALID,0,VALID,95.116,VALID,0,VALID,23.2282,VALID,86,VALID,0.767187,
2008-05-01, 01:42:04,VALID,1008.41,VALID,0,VALID,95.1313,VALID,0,VALID,23.2246,VALID,86,VALID,0.983984,
2008-05-01, 01:43:04,VALID,1008.4,VALID,0,VALID,95.1236,VALID,0.105969,VALID,23.2264,VALID,80,VALID,0.925391,
2008-05-01, 01:44:04,VALID,1008.42,VALID,0,VALID,95.116,VALID,0.105969,VALID,23.1857,VALID,93,VALID,0.997266,
2008-05-01, 01:45:04,VALID,1008.42,VALID,0,VALID,95.1236,VALID,0,VALID,23.2051,VALID,94,VALID,0.826563,
2008-05-01, 01:46:04,VALID,1008.42,VALID,0,VALID,95.1465,VALID,0.105969,VALID,23.1857,VALID,80,VALID,1.09727,
2008-05-01, 01:47:04,VALID,1008.44,VALID,0,VALID,95.1694,VALID,0,VALID,23.1874,VALID,78,VALID,1.01602,
2008-05-01, 01:48:04,VALID,1008.42,VALID,0,VALID,95.2075,VALID,0.105969,VALID,23.1857,VALID,90,VALID,0.8625,
2008-05-01, 01:49:04,VALID,1008.4,VALID,0,VALID,95.238,VALID,0.105969,VALID,23.2069,VALID,86,VALID,0.729297,
2008-05-01, 01:50:04,VALID,1008.37,VALID,0,VALID,95.2685,VALID,0,VALID,23.2264,VALID,73,VALID,0.903125,
2008-05-01, 01:51:04,VALID,1008.35,VALID,0,VALID,95.238,VALID,0.105969,VALID,23.1857,VALID,74,VALID,0.640234,
2008-05-01, 01:52:04,VALID,1008.37,VALID,0,VALID,95.2762,VALID,0.105969,VALID,23.1857,VALID,93,VALID,0.525781,
2008-05-01, 01:53:04,VALID,1008.34,VALID,0,VALID,95.3067,VALID,0,VALID,23.2069,VALID,107,VALID,0.401563,
2008-05-01, 01:54:04,VALID,1008.37,VALID,0,VALID,95.2914,VALID,0.105969,VALID,23.2051,VALID,155,VALID,0.325,
2008-05-01, 01:55:04,VALID,1008.37,VALID,0,VALID,95.299,VALID,0.105969,VALID,23.1857,VALID,113,VALID,0.740234,
2008-05-01, 01:56:04,VALID,1008.36,VALID,0,VALID,95.3829,VALID,0,VALID,23.2264,VALID,100,VALID,0.558984,
2008-05-01, 01:57:04,VALID,1008.35,VALID,0,VALID,95.4134,VALID,0.105969,VALID,23.2441,VALID,89,VALID,0.614453,
2008-05-01, 01:58:04,VALID,1008.38,VALID,0,VALID,95.3753,VALID,0.105969,VALID,23.2441,VALID,106,VALID,0.851172,
2008-05-01, 01:59:04,VALID,1008.4,VALID,0,VALID,95.299,VALID,0.105969,VALID,23.2246,VALID,110,VALID,0.719922,
2008-05-01, 02:00:04,VALID,1008.42,VALID,0,VALID,95.299,VALID,0,VALID,23.2051,VALID,120,VALID,0.738672,
2008-05-01, 02:01:04,VALID,1008.39,VALID,0,VALID,95.3829,VALID,0.105969,VALID,23.2441,VALID,100,VALID,0.559766,
2008-05-01, 02:02:04,VALID,1008.39,VALID,0,VALID,95.36,VALID,0.105969,VALID,23.2848,VALID,75,VALID,0.658594,
2008-05-01, 02:03:04,VALID,1008.36,VALID,0,VALID,95.3448,VALID,0.105969,VALID,23.2459,VALID,106,VALID,0.582031,
2008-05-01, 02:04:04,VALID,1008.36,VALID,0,VALID,95.3677,VALID,0.105969,VALID,23.2246,VALID,80,VALID,0.405469,
2008-05-01, 02:05:04,VALID,1008.36,VALID,0,VALID,95.3753,VALID,0.105969,VALID,23.2441,VALID,81,VALID,0.276953,
2008-05-01, 02:06:04,VALID,1008.36,VALID,0,VALID,95.3677,VALID,0.105969,VALID,23.2459,VALID,100,VALID,0.480469,
2008-05-01, 02:07:04,VALID,1008.36,VALID,0,VALID,95.3982,VALID,0,VALID,23.2654,VALID,113,VALID,0.441797,
2008-05-01, 02:08:04,VALID,1008.36,VALID,0,VALID,95.3829,VALID,0.105969,VALID,23.2441,VALID,136,VALID,1.04414,
2008-05-01, 02:09:04,VALID,1008.36,VALID,0,VALID,95.3295,VALID,0.105969,VALID,23.2459,VALID,125,VALID,0.581641,
2008-05-01, 02:10:04,VALID,1008.37,VALID,0,VALID,95.3753,VALID,0.105969,VALID,23.2654,VALID,136,VALID,0.992188,
2008-05-01, 02:11:04,VALID,1008.37,VALID,0,VALID,95.3905,VALID,0.105969,VALID,23.2459,VALID,124,VALID,0.992969,
2008-05-01, 02:12:04,VALID,1008.38,VALID,0,VALID,95.3905,VALID,0,VALID,23.2476,VALID,132,VALID,0.946484,
2008-05-01, 02:13:04,VALID,1008.39,VALID,0,VALID,95.3448,VALID,0,VALID,23.2069,VALID,123,VALID,0.878125,
2008-05-01, 02:14:04,VALID,1008.36,VALID,0,VALID,95.3982,VALID,0,VALID,23.2069,VALID,129,VALID,1.26094,
2008-05-01, 02:15:04,VALID,1008.37,VALID,0,VALID,95.4516,VALID,0,VALID,23.2476,VALID,118,VALID,1.00859,
2008-05-01, 02:16:04,VALID,1008.33,VALID,0,VALID,95.5049,VALID,0,VALID,23.2671,VALID,105,VALID,0.538672,
2008-05-01, 02:17:04,VALID,1008.33,VALID,0,VALID,95.4973,VALID,0,VALID,23.2671,VALID,100,VALID,1.08828,
2008-05-01, 02:18:04,VALID,1008.4,VALID,0,VALID,95.4744,VALID,0,VALID,23.2282,VALID,108,VALID,0.811719,
2008-05-01, 02:19:04,VALID,1008.38,VALID,0,VALID,95.5202,VALID,0,VALID,23.2671,VALID,109,VALID,0.492188,
2008-05-01, 02:20:04,VALID,1008.4,VALID,0,VALID,95.5431,VALID,0,VALID,23.2671,VALID,105,VALID,0.997266,
2008-05-01, 02:21:04,VALID,1008.4,VALID,0,VALID,95.4516,VALID,0,VALID,23.2282,VALID,111,VALID,0.977734,
2008-05-01, 02:22:04,VALID,1008.42,VALID,0,VALID,95.4744,VALID,0,VALID,23.2069,VALID,110,VALID,1.13398,
2008-05-01, 02:23:04,VALID,1008.39,VALID,0,VALID,95.4897,VALID,0,VALID,23.2476,VALID,99,VALID,1.15781,
2008-05-01, 02:24:04,VALID,1008.42,VALID,0,VALID,95.5278,VALID,0,VALID,23.2476,VALID,98,VALID,0.901953,
2008-05-01, 02:25:04,VALID,1008.39,VALID,0,VALID,95.4668,VALID,0,VALID,23.2282,VALID,99,VALID,1.18477,
2008-05-01, 02:26:04,VALID,1008.38,VALID,0,VALID,95.4897,VALID,0,VALID,23.2264,VALID,105,VALID,1.06641,
2008-05-01, 02:27:04,VALID,1008.39,VALID,0,VALID,95.4439,VALID,0,VALID,23.2476,VALID,94,VALID,1.00859,
2008-05-01, 02:28:04,VALID,1008.41,VALID,0,VALID,95.4973,VALID,0,VALID,23.2459,VALID,85,VALID,0.772656,
2008-05-01, 02:29:04,VALID,1008.39,VALID,0,VALID,95.5049,VALID,0,VALID,23.2671,VALID,104,VALID,0.828906,
2008-05-01, 02:30:04,VALID,1008.4,VALID,0,VALID,95.5202,VALID,0,VALID,23.2671,VALID,120,VALID,0.583984,
2008-05-01, 02:31:04,VALID,1008.39,VALID,0,VALID,95.5202,VALID,0,VALID,23.2671,VALID,121,VALID,0.345703,
2008-05-01, 02:32:04,VALID,1008.38,VALID,0,VALID,95.4516,VALID,0,VALID,23.2264,VALID,101,VALID,0.719922,
2008-05-01, 02:33:04,VALID,1008.35,VALID,0,VALID,95.3905,VALID,0,VALID,23.2459,VALID,125,VALID,0.876172,
2008-05-01, 02:34:04,VALID,1008.34,VALID,0,VALID,95.3295,VALID,0,VALID,23.2069,VALID,157,VALID,0.675391,
2008-05-01, 02:35:04,VALID,1008.35,VALID,0,VALID,95.3753,VALID,0,VALID,23.2459,VALID,96,VALID,0.858984,
2008-05-01, 02:36:04,VALID,1008.34,VALID,0,VALID,95.3677,VALID,0,VALID,23.2671,VALID,109,VALID,0.782422,
2008-05-01, 02:37:04,VALID,1008.35,VALID,0,VALID,95.3067,VALID,0,VALID,23.2476,VALID,123,VALID,0.820313,
2008-05-01, 02:38:04,VALID,1008.35,VALID,0,VALID,95.3372,VALID,0,VALID,23.2459,VALID,113,VALID,0.842578,
2008-05-01, 02:39:04,VALID,1008.35,VALID,0,VALID,95.3295,VALID,0,VALID,23.2671,VALID,110,VALID,0.596484,
2008-05-01, 02:40:04,VALID,1008.37,VALID,0,VALID,95.2914,VALID,0,VALID,23.2459,VALID,118,VALID,0.500391,
2008-05-01, 02:41:04,VALID,1008.35,VALID,0,VALID,95.2228,VALID,0,VALID,23.2264,VALID,109,VALID,1.39805,
2008-05-01, 02:42:04,VALID,1008.38,VALID,0,VALID,95.2075,VALID,0,VALID,23.2459,VALID,89,VALID,0.947266,
2008-05-01, 02:43:04,VALID,1008.36,VALID,0,VALID,95.2914,VALID,0.105969,VALID,23.2459,VALID,85,VALID,1.10742,
2008-05-01, 02:44:04,VALID,1008.37,VALID,0,VALID,95.2457,VALID,0.105969,VALID,23.2654,VALID,76,VALID,0.896094,
2008-05-01, 02:45:04,VALID,1008.38,VALID,0,VALID,95.238,VALID,0,VALID,23.2441,VALID,92,VALID,0.571484,
2008-05-01, 02:46:04,VALID,1008.37,VALID,0,VALID,95.2685,VALID,0.105969,VALID,23.2654,VALID,72,VALID,0.783203,
2008-05-01, 02:47:04,VALID,1008.34,VALID,0,VALID,95.1923,VALID,0,VALID,23.2459,VALID,101,VALID,0.645312,
2008-05-01, 02:48:04,VALID,1008.33,VALID,0,VALID,95.1389,VALID,0.105969,VALID,23.2264,VALID,99,VALID,1.06211,
2008-05-01, 02:49:04,VALID,1008.34,VALID,0,VALID,95.1694,VALID,0,VALID,23.2264,VALID,99,VALID,0.677344,
2008-05-01, 02:50:04,VALID,1008.32,VALID,0,VALID,95.2152,VALID,0.105969,VALID,23.2264,VALID,95,VALID,0.371875,
2008-05-01, 02:51:04,VALID,1008.31,VALID,0,VALID,95.2075,VALID,0.105969,VALID,23.2459,VALID,98,VALID,0.719141,
2008-05-01, 02:52:04,VALID,1008.29,VALID,0,VALID,95.1618,VALID,0,VALID,23.2069,VALID,76,VALID,1.025,
2008-05-01, 02:53:04,VALID,1008.28,VALID,0,VALID,95.1236,VALID,0,VALID,23.2069,VALID,81,VALID,1.12422,
2008-05-01, 02:54:04,VALID,1008.28,VALID,0,VALID,95.1542,VALID,0.105969,VALID,23.1874,VALID,78,VALID,1.15508,
2008-05-01, 02:55:04,VALID,1008.26,VALID,0,VALID,95.1618,VALID,0,VALID,23.2069,VALID,81,VALID,0.662109,
2008-05-01, 02:56:04,VALID,1008.28,VALID,0,VALID,95.1236,VALID,0,VALID,23.2264,VALID,93,VALID,1.01055,
2008-05-01, 02:57:04,VALID,1008.27,VALID,0,VALID,95.1389,VALID,0,VALID,23.2069,VALID,82,VALID,0.930859,
2008-05-01, 02:58:04,VALID,1008.27,VALID,0,VALID,95.1542,VALID,0.105969,VALID,23.2051,VALID,77,VALID,0.688672,
2008-05-01, 02:59:04,VALID,1008.25,VALID,0,VALID,95.177,VALID,0,VALID,23.2069,VALID,60,VALID,0.676562,
2008-05-01, 03:00:04,VALID,1008.22,VALID,0,VALID,95.1923,VALID,0,VALID,23.1857,VALID,66,VALID,0.743359,
2008-05-01, 03:01:04,VALID,1008.21,VALID,0,VALID,95.1847,VALID,0,VALID,23.2069,VALID,62,VALID,0.919531,
2008-05-01, 03:02:04,VALID,1008.21,VALID,0,VALID,95.1618,VALID,0,VALID,23.1874,VALID,85,VALID,1.10586,
2008-05-01, 03:03:04,VALID,1008.24,VALID,0,VALID,95.1694,VALID,0,VALID,23.1679,VALID,72,VALID,0.873047,
2008-05-01, 03:04:04,VALID,1008.24,VALID,0,VALID,95.1618,VALID,0.105969,VALID,23.1662,VALID,78,VALID,1.29258,
2008-05-01, 03:05:04,VALID,1008.25,VALID,0,VALID,95.1313,VALID,0.105969,VALID,23.1874,VALID,89,VALID,1.06992,
2008-05-01, 03:06:04,VALID,1008.3,VALID,0,VALID,95.2075,VALID,0.105969,VALID,23.2069,VALID,74,VALID,0.778125,
2008-05-01, 03:07:04,VALID,1008.26,VALID,0,VALID,95.2075,VALID,0,VALID,23.1874,VALID,72,VALID,1.1168,
2008-05-01, 03:08:04,VALID,1008.26,VALID,0,VALID,95.2075,VALID,0,VALID,23.1679,VALID,49,VALID,1.35352,
2008-05-01, 03:09:04,VALID,1008.22,VALID,0,VALID,95.2304,VALID,0.105969,VALID,23.1467,VALID,77,VALID,1.65625,
2008-05-01, 03:10:04,VALID,1008.2,VALID,0,VALID,95.2609,VALID,0,VALID,23.2069,VALID,72,VALID,1.36055,
2008-05-01, 03:11:04,VALID,1008.2,VALID,0,VALID,95.3295,VALID,0.105969,VALID,23.1679,VALID,80,VALID,1.0168,
2008-05-01, 03:12:04,VALID,1008.2,VALID,0,VALID,95.3905,VALID,0.105969,VALID,23.1679,VALID,82,VALID,1.08555,
2008-05-01, 03:13:04,VALID,1008.2,VALID,0,VALID,95.4134,VALID,0.105969,VALID,23.1485,VALID,82,VALID,1.13281,
2008-05-01, 03:14:04,VALID,1008.21,VALID,0,VALID,95.4592,VALID,0.105969,VALID,23.1077,VALID,79,VALID,1.14883,
2008-05-01, 03:15:04,VALID,1008.22,VALID,0,VALID,95.5202,VALID,0.105969,VALID,23.1272,VALID,71,VALID,1.02734,
2008-05-01, 03:16:04,VALID,1008.21,VALID,0,VALID,95.5507,VALID,0,VALID,23.1077,VALID,77,VALID,0.758203,
2008-05-01, 03:17:04,VALID,1008.21,VALID,0,VALID,95.5888,VALID,0,VALID,23.1077,VALID,66,VALID,0.501953,
2008-05-01, 03:18:04,VALID,1008.2,VALID,0,VALID,95.6346,VALID,0.105969,VALID,23.129,VALID,87,VALID,0.701563,
2008-05-01, 03:19:04,VALID,1008.23,VALID,0,VALID,95.6574,VALID,0.105969,VALID,23.1095,VALID,63,VALID,0.99375,
2008-05-01, 03:20:04,VALID,1008.22,VALID,0,VALID,95.6422,VALID,0.105969,VALID,23.1095,VALID,84,VALID,1.07422,
2008-05-01, 03:21:04,VALID,1008.21,VALID,0,VALID,95.6422,VALID,0,VALID,23.0688,VALID,68,VALID,1.40937,
2008-05-01, 03:22:04,VALID,1008.21,VALID,0,VALID,95.6574,VALID,0,VALID,23.0705,VALID,66,VALID,0.575781,
2008-05-01, 03:23:04,VALID,1008.21,VALID,0,VALID,95.7032,VALID,0.105969,VALID,23.09,VALID,71,VALID,0.282422,
2008-05-01, 03:24:04,VALID,1008.2,VALID,0,VALID,95.7413,VALID,0.105969,VALID,23.0688,VALID,76,VALID,0.330859,
2008-05-01, 03:25:04,VALID,1008.14,VALID,0,VALID,95.7413,VALID,0.105969,VALID,23.09,VALID,67,VALID,0.673437,
2008-05-01, 03:26:04,VALID,1008.18,VALID,0,VALID,95.7337,VALID,0.105969,VALID,23.0705,VALID,58,VALID,0.525781,
2008-05-01, 03:27:04,VALID,1008.17,VALID,0,VALID,95.7642,VALID,0,VALID,23.09,VALID,77,VALID,0.844922,
2008-05-01, 03:28:04,VALID,1008.17,VALID,0,VALID,95.8023,VALID,0.105969,VALID,23.1095,VALID,81,VALID,0.698828,
2008-05-01, 03:29:04,VALID,1008.18,VALID,0,VALID,95.7718,VALID,0,VALID,23.0705,VALID,79,VALID,0.904297,
2008-05-01, 03:30:04,VALID,1008.19,VALID,0,VALID,95.7566,VALID,0,VALID,23.0511,VALID,57,VALID,0.699219,
2008-05-01, 03:31:04,VALID,1008.18,VALID,0,VALID,95.7642,VALID,0.105969,VALID,23.0493,VALID,90,VALID,0.770703,
2008-05-01, 03:32:04,VALID,1008.2,VALID,0,VALID,95.7642,VALID,0.105969,VALID,23.0705,VALID,104,VALID,0.714453,
2008-05-01, 03:33:04,VALID,1008.16,VALID,0,VALID,95.7337,VALID,0.105969,VALID,23.0493,VALID,107,VALID,1.28398,
2008-05-01, 03:34:04,VALID,1008.14,VALID,0,VALID,95.7108,VALID,0.105969,VALID,23.0705,VALID,96,VALID,1.32695,
2008-05-01, 03:35:04,VALID,1008.14,VALID,0,VALID,95.6803,VALID,0.105969,VALID,23.0705,VALID,79,VALID,1.30625,
2008-05-01, 03:36:04,VALID,1008.13,VALID,0,VALID,95.688,VALID,0.105969,VALID,23.0705,VALID,94,VALID,0.981641,
2008-05-01, 03:37:04,VALID,1008.14,VALID,0,VALID,95.6651,VALID,0.105969,VALID,23.0493,VALID,120,VALID,0.680078,
2008-05-01, 03:38:04,VALID,1008.14,VALID,0,VALID,95.6727,VALID,0.105969,VALID,23.0705,VALID,88,VALID,0.792969,
2008-05-01, 03:39:04,VALID,1008.13,VALID,0,VALID,95.6803,VALID,0.105969,VALID,23.09,VALID,98,VALID,0.498047,
2008-05-01, 03:40:04,VALID,1008.16,VALID,0,VALID,95.6498,VALID,0.105969,VALID,23.1095,VALID,73,VALID,0.420703,
2008-05-01, 03:41:04,VALID,1008.18,VALID,0,VALID,95.6574,VALID,0,VALID,23.09,VALID,84,VALID,0.452734,